AirNav   Phillips 66 Aviation Fuel
 
 896 users online  

1M3 Ardmore Airport
Ardmore, Alabama, USA

GOING TO ARDMORE?


FAA INFORMATION EFFECTIVE 24 MAY 2018

Location

FAA Identifier: 1M3
Lat/Long: 34-58-44.7000N / 086-52-59.8000W
34-58.745000N / 086-52.996667W
34.9790833 / -86.8832778
(estimated)
Elevation: 922 ft. / 281 m (estimated)
Variation: 00W (1985)
From city: 2 miles SW of ARDMORE, AL
Time zone: UTC -5 (UTC -6 during Standard Time)
Zip code: 35739

Airport Operations

Airport use: Open to the public
Activation date: 10/1964
Control tower: no
ARTCC: MEMPHIS CENTER
FSS: ANNISTON FLIGHT SERVICE STATION
NOTAMs facility: ANB (NOTAM-D service available)
Attendance: MON-FRI DAYLIGHT HOURS
Wind indicator: yes
Segmented circle: no

Airport Communications

CTAF: 122.9
WX AWOS-3 at GZS (14 nm NW): 118.275 (931-363-6760)
WX AWOS-3 at FYM (16 nm E): 135.275 (931-433-5916)
WX AWOS-3PT at MDQ (18 nm SE): 120.000 (256-829-1242)
WX ASOS at DCU (20 nm S): 118.375 (256-350-4270)

Nearby radio navigation aids

VOR radial/distance  VOR name  Freq  Var
RQZr310/16.4ROCKET VORTAC112.2002E
DCUr009/20.0DECATUR VOR/DME112.8001W
MSLr060/34.1MUSCLE SHOALS VORTAC116.5001E

 
NDB name  Hdg/Dist  Freq  Var  ID
REDSTONE334/19.428704WHUA .... ..- .-

Airport Services

Parking: tiedowns

Runway Information

Runway 1/19

Dimensions: 2700 x 100 ft. / 823 x 30 m
Surface: turf, in fair condition
Runway edge markings: RY 01/19 MARKINGS FADED.
RY 01/19 MARKED WITH ORANGE CONES, THLD AND TWY MARKED WITH WHITE CONES.
Gradient: S
RUNWAY 1  RUNWAY 19
Latitude: 34-58.526242N34-58.962733N
Longitude: 086-53.050312W086-52.943867W
Elevation: 922.0 ft.901.0 ft.
Gradient: 0.8% UP
Traffic pattern: leftleft
Runway heading: 011 magnetic, 011 true191 magnetic, 191 true
Markings: NSTD, in poor conditionNSTD, in poor condition
Obstructions: 51 ft. tree, 474 ft. from runway, 120 ft. left of centerline, 9:1 slope to clear64 ft. tree, 1522 ft. from runway, 73 ft. right of centerline, 23:1 slope to clear

Airport Ownership and Management from official FAA records

Ownership: Privately-owned
Owner: LORETTA TRULSON
28825 AIRPORT LANE
ARDMORE, AL 35739
Phone 256-423-2736
Manager: LORETTA TRULSON
ARDMORE AVN, 28825 ARPT LANE
ARDMORE, AL 35739
Phone 256-423-2736

Instrument Procedures

There are no published instrument procedures at 1M3.

Some nearby airports with instrument procedures:

KGZS - Abernathy Field Airport (14 nm NW)
KFYM - Fayetteville Municipal Airport (16 nm E)
KMDQ - Huntsville Executive Airport / Tom Sharp Jr Field (18 nm SE)
KDCU - Pryor Field Regional Airport (20 nm S)
KHUA - Redstone Army Airfield (21 nm SE)
 
Loc | Ops | Rwys | IFR | FBO | Links
Com | Nav | Svcs | Stats | Notes

AirNav Hotels Sweepstakes
 
Area around 1M3 (Ardmore Airport)
 
Road maps at: MapQuest Bing Google
 
Aerial photo
WARNING: Photo may not be current or correct
Aerial photo of 1M3 (Ardmore Airport)
Photo courtesy of the Huntsville Flight Center
Photo taken 26-Nov-2008

Do you have a better or more recent aerial photo of Ardmore Airport that you would like to share? If so, please send us your photo.

 
Sectional chart

 
Airport distance calculator
Flying to Ardmore Airport? Find the distance to fly.

From to 1M3

Sunrise and sunset
Times for 27-May-2018
 Local
(UTC-5)
 Zulu
(UTC)
Morning civil twilight05:0910:09
Sunrise05:3810:38
Sunset19:5200:52
Evening civil twilight20:2101:21

Current date and time
Zulu (UTC)  27-May-2018 14:08:46
Local (UTC-5)  27-May-2018 09:08:46
 
METAR
KGZS 
14nm NW 
271355Z AUTO 15003KT 10SM CLR 25/22 A2995 RMK A01
KFYM 
16nm E 
271355Z AUTO 17005KT 10SM CLR 25/21 A2996 RMK A01
KMDQ 
18nm E 
271355Z AUTO 15005KT 10SM CLR 25/21 A2997 RMK A01 T02530208
KDCU 
20nm S 
271353Z AUTO 14005KT 10SM CLR 24/21 A2996 RMK AO2 SLP138 T02440211
KHSV 
20nm S 
271353Z 18005KT 10SM FEW015 BKN250 25/22 A2995 RMK AO2 SLP135 T02500217
KHUA 
21nm SE 
271358Z AUTO 00000KT 10SM CLR 25/21 A2995 RMK AO2 SLP137 T02500210
TAF
KHSV 
20nm S 
271120Z 2712/2812 VRB02KT P6SM BKN150 BKN250 FM271400 11005KT P6SM SCT025 BKN250 FM271700 10007KT P6SM VCTS BKN050CB TEMPO 2720/2724 6SM -TSRA BKN035CB FM280200 08003KT P6SM SCT100 OVC250
NOTAMs
Click for the latest NOTAMs
NOTAMs are issued by the DoD/FAA and will open in a separate window not controlled by AirNav.

 

 
 

Aviation Businesses, Services, and Facilities

  
 Business Name 
 
 Contact 
 
 Services / Description 
 
Distance
 
Comments
  
Ardmore Aviation 256-423-2736
no information available

If you are affiliated with Ardmore Aviation and would like to show here your services, contact info, web link, logo, and more, click here
on airport  
   write
 

Would you like to see your business listed on this page?

 If your business provides an interesting product or service to pilots, flight crews, aircraft, or users of the Ardmore Airport, you should consider listing it here.  To start the listing process, click on the button below
 
Add a business
 

Other Pages about Ardmore Airport

Update a link
 
Copyright © AirNav, LLC. All rights reserved. Privacy Policy  Contact